TimeEDT,TemperatureF,Dew PointF,Humidity,Sea Level PressureIn,VisibilityMPH,Wind Direction,Wind SpeedMPH,Gust SpeedMPH,PrecipitationIn,Events,Conditions,WindDirDegrees,DateUTC
12:53 AM,64.0,57.0,78,29.93,10.0,Calm,Calm,-,N/A,,Clear,0,2013-06-17 04:53:00
1:53 AM,63.0,59.0,87,29.91,10.0,Calm,Calm,-,N/A,,Partly Cloudy,0,2013-06-17 05:53:00
2:53 AM,62.1,60.1,93,29.91,10.0,Calm,Calm,-,N/A,,Partly Cloudy,0,2013-06-17 06:53:00
3:53 AM,61.0,59.0,93,29.91,10.0,Calm,Calm,-,N/A,,Clear,0,2013-06-17 07:53:00
4:53 AM,61.0,57.9,90,29.91,10.0,Calm,Calm,-,N/A,,Clear,0,2013-06-17 08:53:00
5:53 AM,62.1,57.9,86,29.91,10.0,South,3.5,-,N/A,,Clear,190,2013-06-17 09:53:00
6:53 AM,60.1,57.9,93,29.93,9.0,Calm,Calm,-,N/A,,Clear,0,2013-06-17 10:53:00
7:53 AM,64.9,61.0,87,29.93,9.0,Calm,Calm,-,N/A,,Clear,0,2013-06-17 11:53:00
8:53 AM,70.0,63.0,78,29.94,10.0,Calm,Calm,-,N/A,,Clear,0,2013-06-17 12:53:00
9:53 AM,75.0,64.0,69,29.94,10.0,SSW,4.6,-,N/A,,Clear,210,2013-06-17 13:53:00
10:53 AM,81.0,57.9,45,29.93,10.0,WSW,8.1,-,N/A,,Clear,250,2013-06-17 14:53:00
11:53 AM,82.9,53.1,36,29.93,10.0,West,8.1,-,N/A,,Clear,280,2013-06-17 15:53:00
12:53 PM,84.9,54.0,34,29.91,10.0,WNW,8.1,-,N/A,,Clear,290,2013-06-17 16:53:00
1:53 PM,84.9,53.1,33,29.91,10.0,West,8.1,19.6,N/A,,Clear,270,2013-06-17 17:53:00
2:53 PM,86.0,51.1,30,29.90,10.0,WSW,13.8,-,N/A,,Partly Cloudy,240,2013-06-17 18:53:00
3:53 PM,87.1,53.1,31,29.89,10.0,WSW,6.9,-,N/A,,Partly Cloudy,240,2013-06-17 19:53:00
4:53 PM,86.0,52.0,31,29.88,10.0,West,15.0,20.7,N/A,,Partly Cloudy,270,2013-06-17 20:53:00
5:53 PM,84.9,52.0,32,29.87,10.0,West,11.5,17.3,N/A,,Clear,270,2013-06-17 21:53:00
6:53 PM,82.9,53.1,36,29.86,10.0,West,6.9,-,N/A,,Clear,280,2013-06-17 22:53:00
7:53 PM,81.0,55.9,42,29.87,10.0,NW,4.6,-,N/A,,Clear,310,2013-06-17 23:53:00
8:53 PM,78.1,57.9,50,29.87,10.0,Calm,Calm,-,N/A,,Partly Cloudy,0,2013-06-18 00:53:00
9:22 PM,78.8,59.0,51,29.90,10.0,WNW,13.8,19.6,0.00,Rain-Thunderstorm,Light Thunderstorms and Rain,300,2013-06-18 01:22:00
9:43 PM,68.0,57.2,68,29.90,10.0,SW,8.1,-,0.01,Rain-Thunderstorm,Light Thunderstorms and Rain,220,2013-06-18 01:43:00
9:50 PM,66.2,59.0,78,29.90,10.0,Calm,Calm,-,0.01,,Mostly Cloudy,0,2013-06-18 01:50:00
9:53 PM,66.9,59.0,76,29.89,10.0,Calm,Calm,-,0.01,,Mostly Cloudy,0,2013-06-18 01:53:00
10:53 PM,64.9,60.1,84,29.92,-9999.0,Calm,Calm,-,N/A,,Unknown,0,2013-06-18 02:53:00
11:53 PM,66.0,59.0,78,29.93,10.0,WSW,8.1,-,N/A,,Mostly Cloudy,240,2013-06-18 03:53:00